Location: Newark
(41.7833°N, 12.7667°E)
Time: 14:19:56
(UTC+00:00)

Envisat - Visible Passes

Search period start: 20 August 2019 00:00
Search period end: 30 August 2019 00:00
Orbit: 764 x 766 km, 98.1° (Epoch: 19 August)

Date Brightness Start Highest point End Pass type
(mag) Time Alt. Az. Time Alt. Az. Time Alt. Az.
20 Aug 5.8 18:35:40 10° SW 18:39:14 19° W 18:42:48 10° NW visible
22 Aug 6.4 19:04:20 10° W 19:05:02 10° W 19:05:46 10° W visible
23 Aug 5.6 18:23:49 10° SSW 18:27:52 24° W 18:31:57 10° NW visible
25 Aug 6.0 18:51:11 10° WSW 18:53:39 14° W 18:56:08 10° WNW visible
28 Aug 5.8 18:38:58 10° SW 18:42:17 17° W 18:45:36 10° NW visible
